User: anonymous   Login
Location: Fort Worth, Tx
(32.7431°N, 97.3695°W)
Time: 12:19:09
(UTC-04:00)
Language:

PCSat - Orbit

View from above orbital plane
View from above orbital plane
View from above satellite
View from above satellite

Ground track
Ground track

The orbit data is extracted from the following two-line orbital elements,

1 26931U 01043C   20262.71202602 -.00000032 +00000-0 +19482-4 0  9995
2 26931 067.0493 261.7285 0006546 276.0029 084.0326 14.30587585990412
Epoch (UTC): 18 September 2020 17:05:19
Eccentricity: 0.0006546
inclination: 67.0493°
perigee height: 785 km
apogee height: 794 km
right ascension of ascending node: 261.7285°
argument of perigee: 276.0029°
revolutions per day: 14.30587585
mean anomaly at epoch: 84.0326°
orbit number at epoch: 99041

The dashed part of the orbit path shows where the satellite is in the earth's shadow,  

DLR